Simultaneous Nadir Overpasses (SNOs) Predictions

Prediction of SNOs between METOP-B and TERRA Satellite Orbit:

Table of predicted SNOs for the next 14.0 days since TLE Epoch: 12/27/2014
Index Date (METOP-B) Time (METOP-B) Lat,Lon (METOP-B) SZA (METOP-B ) Date (TERRA) Time (TERRA) Lat,Lon (TERRA) SZA (TERRA ) Distance(km) Time Diff (sec)
1 12/28/2014 13:21:52 -81.27,-153.92 72.95 12/28/2014 13:22:42 -81.27,-154.00 72.94 1.33 50
2 12/28/2014 14:12:32 81.27, 13.60 107.07 12/28/2014 14:12:08 81.28, 13.78 107.08 3.10 24
3 12/31/2014 08:56:17 -81.27, -87.67 73.18 12/31/2014 08:56:55 -81.27, -87.54 73.15 2.34 38
4 12/31/2014 09:46:56 81.28, 80.23 106.89 12/31/2014 09:46:21 81.28, 80.22 106.87 0.20 35
5 01/03/2015 04:30:41 -81.27, -21.10 73.43 01/03/2015 04:31:07 -81.27, -21.04 73.41 1.02 26
6 01
